Martinsburg, WV

9:47 PM EDT on July 22, 2017 (GMT -0400)
Eastern W Va Regional-Shepherd

Weather History for KMRB - October, 2012

Change the Weather History Date:

Tuesday, October 2, 2012

  Actual Average Record
Temperature  
Mean Temperature 62 °F 59 °F  
Max Temperature 66 °F 70 °F 98 °F (1927)
Min Temperature 58 °F 47 °F 28 °F (1947)
Degree Days  
Heating Degree Days 3 7  
Month to date heating degree days 13 14  
Since 1 July heating degree days 90 105  
Cooling Degree Days 0 1  
Month to date cooling degree days 0 2  
Year to date cooling degree days 1135 887  
Growing Degree Days 10 (Base 50)    
Moisture  
Dew Point 59 °F    
Average Humidity 94    
Maximum Humidity 100    
Minimum Humidity 87    
Precipitation  
Precipitation 0.69 in 0.09 in 3.35 in (1929)
Month to date precipitation 0.72 0.19  
Year to date precipitation 26.68 30.00  
Sea Level Pressure  
Sea Level Pressure 29.94 in    
Wind  
Wind Speed 2 mph (NNE)    
Max Wind Speed 7 mph    
Max Gust Speed 9 mph    
Visibility 3 miles    
Events Fog , Rain    
T = Trace of Precipitation, MM = Missing Value Source: NWS Daily Summary

Daily Weather History Graph

Daily Weather History Graph

Search for Another Location

Airport or City:

Trip Planner

Search our weather history database for the weather conditions in past years. The results will help you decide how hot, cold, wet, or windy it might be!

Date:

Astronomy

Oct. 02, 2012 Rise Set
Actual Time 7:09 AM EDT 6:52 PM EDT
Civil Twilight 6:42 AM EDT 7:18 PM EDT
Nautical Twilight 6:11 AM EDT 7:49 PM EDT
Astronomical Twilight 5:40 AM EDT 8:21 PM EDT
Moon 8:04 PM EDT (10/2) 9:33 AM EDT (10/2)
Length of Visible Light 12h 36m
Length of Day
11h 42m
Waning Gibbous, 94% of the Moon is Illuminated
Oct 2
Waning Gibbous
Oct 8
Last Quarter
Oct 15
New
Oct 21
First Quarter
Oct 29
Full

Hourly Weather History & Observations

Time (EDT) Temp. Dew Point Humidity Pressure Visibility Wind Dir Wind Speed Gust Speed Precip Events Conditions
12:53 AM 57.9 °F 55.9 °F 93% 29.95 in 6.0 mi Calm Calm - 0.00 in   Overcast
1:53 AM 57.9 °F 55.0 °F 90% 29.94 in 9.0 mi Calm Calm - N/A   Overcast
3:53 AM 57.9 °F 55.0 °F 90% 29.92 in 7.0 mi East 3.5 mph - 0.01 in Rain Light Rain
4:53 AM 57.9 °F 55.9 °F 93% 29.91 in 4.0 mi ENE 4.6 mph - 0.05 in Rain Light Rain
5:16 AM 57.2 °F 55.4 °F 94% 29.93 in 3.0 mi Calm Calm - 0.03 in Rain Light Rain
5:53 AM 57.9 °F 55.9 °F 93% 29.93 in 2.5 mi Calm Calm - 0.09 in Rain Rain
6:40 AM 59.0 °F 57.2 °F 94% 29.93 in 2.5 mi North 3.5 mph - 0.06 in Rain Light Rain
6:53 AM 59.0 °F 57.0 °F 93% 29.93 in 2.5 mi NNE 3.5 mph - 0.06 in Rain Light Rain
7:14 AM 59.0 °F 57.2 °F 94% 29.94 in 2.0 mi Calm Calm - 0.01 in Rain Light Rain
7:28 AM 59.0 °F 57.2 °F 94% 29.94 in 2.0 mi Calm Calm - 0.01 in Rain Light Rain
7:41 AM 59.0 °F 57.2 °F 94% 29.95 in 1.8 mi Calm Calm - 0.02 in Rain Light Rain
7:53 AM 59.0 °F 57.0 °F 93% 29.94 in 1.0 mi North 3.5 mph - 0.04 in Rain Rain
8:00 AM 59.0 °F 57.2 °F 94% 29.95 in 0.8 mi Calm Calm - 0.01 in Rain Light Rain
8:06 AM 59.0 °F 57.2 °F 94% 29.95 in 0.8 mi North 3.5 mph - 0.01 in Rain Light Rain
8:08 AM 59.0 °F 57.2 °F 94% 29.95 in 1.0 mi North 3.5 mph - 0.01 in Rain Light Rain
8:17 AM 59.0 °F 57.2 °F 94% 29.96 in 1.2 mi North 3.5 mph - 0.01 in   Overcast
8:53 AM 59.0 °F 57.0 °F 93% 29.95 in 1.8 mi NNE 6.9 mph - 0.01 in   Overcast
9:53 AM 60.1 °F 57.9 °F 93% 29.96 in 1.5 mi North 3.5 mph - 0.14 in Rain Rain
10:53 AM 60.1 °F 59.0 °F 96% 29.95 in 2.5 mi NNE 3.5 mph - 0.23 in Rain Light Rain
11:01 AM 60.8 °F 59.0 °F 94% 29.95 in 3.0 mi NE 4.6 mph - 0.00 in Rain Light Rain
11:20 AM 60.8 °F 59.0 °F 94% 29.95 in 2.5 mi North 5.8 mph - 0.02 in Rain Light Rain
11:32 AM 60.8 °F 59.0 °F 94% 29.95 in 1.5 mi NNW 5.8 mph - 0.04 in Rain Rain
11:53 AM 61.0 °F 59.0 °F 93% 29.94 in 3.0 mi NNE 4.6 mph - 0.06 in Rain Light Rain
12:53 PM 62.1 °F 60.1 °F 93% 29.94 in 6.0 mi North 5.8 mph - 0.00 in   Overcast
1:53 PM 63.0 °F 60.1 °F 90% 29.92 in 5.0 mi NNE 5.8 mph - 0.00 in   Overcast
2:53 PM 64.0 °F 61.0 °F 90% 29.91 in 6.0 mi Calm Calm - N/A   Overcast
3:53 PM 64.9 °F 62.1 °F 90% 29.91 in 7.0 mi NNE 4.6 mph - N/A   Overcast
4:02 PM 64.4 °F 60.8 °F 88% 29.91 in 7.0 mi NE 3.5 mph - N/A   Overcast
4:53 PM 64.9 °F 62.1 °F 90% 29.91 in 7.0 mi NE 3.5 mph - N/A   Overcast
5:38 PM 64.4 °F 62.6 °F 94% 29.91 in 2.5 mi NNE 4.6 mph - N/A   Overcast
5:51 PM 64.4 °F 62.6 °F 94% 29.91 in 1.8 mi NNE 3.5 mph - N/A   Overcast
6:53 PM 64.0 °F 62.1 °F 93% 29.93 in 1.8 mi Calm Calm - 0.00 in   Overcast
7:00 PM 64.4 °F 62.6 °F 94% 29.93 in 2.5 mi NNW 3.5 mph - N/A   Overcast
7:46 PM 62.6 °F 62.6 °F 100% 29.94 in 1.8 mi North 5.8 mph - N/A   Overcast
8:09 PM 62.6 °F 62.6 °F 100% 29.95 in 1.8 mi Calm Calm - N/A   Overcast
8:17 PM 62.6 °F 60.8 °F 94% 29.95 in 2.0 mi NNE 3.5 mph - N/A   Overcast
8:53 PM 63.0 °F 61.0 °F 93% 29.96 in 1.8 mi Calm Calm - N/A   Overcast
9:53 PM 63.0 °F 61.0 °F 93% 29.97 in 1.0 mi Calm Calm - N/A   Overcast
10:07 PM 62.6 °F 60.8 °F 94% 29.97 in 0.8 mi NE 3.5 mph - N/A   Overcast
10:53 PM 62.1 °F 61.0 °F 96% 29.97 in 0.5 mi Calm Calm - N/A Fog Fog
11:12 PM 62.6 °F 60.8 °F 94% 29.97 in 0.2 mi NNW 3.5 mph - N/A Fog Fog
11:24 PM 62.6 °F 60.8 °F 94% 29.97 in 0.5 mi North 3.5 mph - N/A Fog Fog
11:49 PM 62.6 °F 60.8 °F 94% 29.97 in 0.2 mi Calm Calm - N/A Fog Fog
11:53 PM 62.1 °F 61.0 °F 96% 29.97 in 0.2 mi Calm Calm - N/A Fog Fog